User: anonymous   Login
Location: Unspecified
(53.8513°N, 0.0000°E)
Time: 05:43:26
(UTC+00:00)
Language:

BLITS - Orbit

View from above orbital plane
View from above orbital plane
View from above satellite
View from above satellite

Ground track
Ground track

The orbit is defined by the following mean orbital elements,

1 35871U          26088.17354036 +.00000000 +00000-0 +37210-4 0 00007
2 35871  98.7585  51.0867 0003283 175.4479 184.6729 14.22172418    07
Epoch (UTC): 29 March 2026 04:09:53
Eccentricity: 0.0003283
inclination: 98.7585°
perigee height: 816 km
apogee height: 820 km
right ascension of ascending node: 51.0867°
argument of perigee: 175.4479°
revolutions per day: 14.22172418
mean anomaly at epoch: 184.6729°

The dashed part of the orbit path shows where the satellite is in the earth's shadow,  

DLR